Overview Statistics Trail Chart Weather Telemetry Raw packets
 

This is the latest recevied weather packets stored in our database for station/object WW3TRG. If no packets are shown the sender has not sent any weather packets the latest 10 day(s).

<< 7 8 9 10 11 12 13 >>
Time Temp. Humidity Pressure Rain* Wind** Luminosity Snow
1788560267 25° C 78% 1011.1 hPa 0 mm - 18 W/m² -
1788559962 25.56° C 77% 1011.1 hPa 0 mm - 18 W/m² -
1788559657 25.56° C 77% 1011.1 hPa 0 mm - 17 W/m² -
1788559357 25.56° C 76% 1011.2 hPa 0 mm - 22 W/m² -
1788559052 25.56° C 75% 1011.4 hPa 0 mm - 50 W/m² -
1788558747 25.56° C 75% 1011.2 hPa 0 mm - 54 W/m² -
1788558442 25.56° C 74% 1011.4 hPa 0 mm - 45 W/m² -
1788558138 25.56° C 75% 1011.3 hPa 0 mm - 53 W/m² -
1788557836 25.56° C 76% 1011.4 hPa 0 mm - 39 W/m² -
1788557533 26.11° C 75% 1011.3 hPa 0 mm - 31 W/m² -
1788557233 26.67° C 74% 1011.1 hPa 0 mm - 31 W/m² -
1788556928 26.67° C 70% 1011.2 hPa 0 mm - 27 W/m² -
1788556628 27.22° C 65% 1010.8 hPa 0 mm - 31 W/m² -
1788556323 27.22° C 64% 1010.9 hPa 0 mm - 51 W/m² -
1788556017 27.22° C 66% 1010.9 hPa 0 mm - 75 W/m² -
1788555713 27.78° C 66% 1010.8 hPa 0 mm - 46 W/m² -
1788555408 28.89° C 63% 1010.6 hPa 0 mm - 119 W/m² -
1788555105 28.33° C 63% 1010.6 hPa 0 mm - 268 W/m² -
1788554800 28.33° C 70% 1010.7 hPa 0 mm - 209 W/m² -
1788554496 27.78° C 70% 1010.6 hPa 0 mm - 179 W/m² -
1788554192 27.78° C 66% 1010.8 hPa 0 mm - 133 W/m² -
1788553888 27.78° C 67% 1010.8 hPa 0 mm - 111 W/m² -
1788553584 28.33° C 63% 1010.9 hPa 0 mm - 79 W/m² -
1788553280 28.89° C 62% 1010.7 hPa 0 mm - 256 W/m² -
1788552980 28.89° C 59% 1011 hPa 0 mm - 60 W/m² -

* Rain latest hour (hover to see other rain measurements)
** Current wind speed in m/s (hover to see current wind gust speed)